GAP2995 RPVM-RPMZ

Flight info

Callsign GAP2995
Flight time 0h 54m
Altitude 24000
Route ALDIN1Q ALDIN G578 PARAL PARAL2W
Aircraft DH8D/M-SDE2E3FGRY/H

Departure

Time 2026-04-15 07:24
Airport Mactan Cebu International Airport (RPVM)

Arrival

Time 2026-04-15 08:19
Airport Zamboanga International Airport (RPMZ)
Time Latitude Longitude Altitude Speed Heading
2026-04-15 07:00 10.31695 123.98099 36 ft 0 kts 314°
2026-04-15 07:12 10.31689 123.98106 36 ft 2 kts 314°
2026-04-15 07:13 10.31678 123.98116 36 ft 1 kts 314°
2026-04-15 07:13 10.31672 123.98124 36 ft 2 kts 300°
2026-04-15 07:13 10.31668 123.98138 36 ft 2 kts 270°
2026-04-15 07:13 10.31671 123.98153 36 ft 2 kts 241°
2026-04-15 07:14 10.31678 123.98161 36 ft 0 kts 224°
2026-04-15 07:16 10.31664 123.98147 36 ft 5 kts 226°
2026-04-15 07:16 10.31624 123.98119 37 ft 6 kts 190°
2026-04-15 07:16 10.31580 123.98131 38 ft 6 kts 143°
2026-04-15 07:16 10.31544 123.98166 37 ft 7 kts 136°
2026-04-15 07:17 10.31520 123.98191 37 ft 0 kts 135°
2026-04-15 07:18 10.31519 123.98191 37 ft 1 kts 135°
2026-04-15 07:18 10.31495 123.98216 36 ft 7 kts 135°
2026-04-15 07:18 10.31439 123.98218 35 ft 11 kts 217°
2026-04-15 07:18 10.31376 123.98156 35 ft 12 kts 225°
2026-04-15 07:19 10.31312 123.98092 36 ft 13 kts 225°
2026-04-15 07:19 10.31248 123.98026 37 ft 13 kts 225°
2026-04-15 07:19 10.31178 123.97957 37 ft 14 kts 224°
2026-04-15 07:19 10.31105 123.97883 38 ft 15 kts 225°
2026-04-15 07:20 10.31030 123.97809 39 ft 15 kts 224°
2026-04-15 07:20 10.30949 123.97727 36 ft 17 kts 225°
2026-04-15 07:20 10.30856 123.97634 33 ft 18 kts 225°
2026-04-15 07:20 10.30767 123.97544 28 ft 17 kts 224°
2026-04-15 07:21 10.30684 123.97462 26 ft 16 kts 225°
2026-04-15 07:21 10.30611 123.97388 24 ft 8 kts 225°
2026-04-15 07:21 10.30571 123.97366 23 ft 5 kts 167°
2026-04-15 07:21 10.30570 123.97366 23 ft 0 kts 167°
2026-04-15 07:22 10.30543 123.97382 22 ft 9 kts 138°
2026-04-15 07:22 10.30513 123.97423 22 ft 5 kts 75°
2026-04-15 07:23 10.30522 123.97438 22 ft 0 kts 43°
2026-04-15 07:23 10.30550 123.97465 21 ft 27 kts 44°
2026-04-15 07:24 10.30907 123.97825 35 ft 112 kts 44°
2026-04-15 07:24 10.31606 123.98522 180 ft 159 kts 44°
2026-04-15 07:24 10.32431 123.99371 759 ft 180 kts 45°
2026-04-15 07:24 10.33361 124.00334 1376 ft 199 kts 44°
2026-04-15 07:25 10.34370 124.01368 1879 ft 213 kts 44°
2026-04-15 07:25 10.35299 124.02525 2407 ft 221 kts 65°
2026-04-15 07:25 10.35313 124.04084 3039 ft 229 kts 109°
2026-04-15 07:25 10.34309 124.05305 3731 ft 232 kts 139°
2026-04-15 07:26 10.33128 124.06422 4358 ft 235 kts 131°
2026-04-15 07:26 10.32032 124.07680 4897 ft 242 kts 128°
2026-04-15 07:26 10.30949 124.08996 5503 ft 245 kts 128°
2026-04-15 07:26 10.29854 124.10338 6190 ft 245 kts 128°
2026-04-15 07:27 10.28783 124.11649 6827 ft 247 kts 128°
2026-04-15 07:27 10.27665 124.13015 7425 ft 251 kts 129°
2026-04-15 07:27 10.26546 124.14383 8026 ft 255 kts 129°
2026-04-15 07:27 10.25423 124.15756 8664 ft 257 kts 129°
2026-04-15 07:28 10.24278 124.17155 9314 ft 258 kts 130°
2026-04-15 07:28 10.23133 124.18554 9931 ft 261 kts 130°
2026-04-15 07:28 10.21973 124.19971 10541 ft 264 kts 130°
2026-04-15 07:28 10.20669 124.21265 11124 ft 265 kts 152°
2026-04-15 07:29 10.18979 124.21973 11776 ft 263 kts 162°
2026-04-15 07:29 10.17252 124.22436 12427 ft 260 kts 178°
2026-04-15 07:29 10.15460 124.22289 13040 ft 259 kts 193°
2026-04-15 07:29 10.13681 124.21937 13657 ft 261 kts 194°
2026-04-15 07:30 10.11911 124.21573 14261 ft 264 kts 194°
2026-04-15 07:30 10.10105 124.21208 14883 ft 266 kts 193°
2026-04-15 07:30 10.08310 124.20848 15496 ft 267 kts 193°
2026-04-15 07:30 10.06487 124.20483 16098 ft 270 kts 193°
2026-04-15 07:31 10.04648 124.20113 16695 ft 272 kts 193°
2026-04-15 07:31 10.02789 124.19740 17297 ft 274 kts 193°
2026-04-15 07:31 10.00915 124.19364 17899 ft 276 kts 193°
2026-04-15 07:31 9.99057 124.18992 18481 ft 278 kts 193°
2026-04-15 07:32 9.97154 124.18610 19062 ft 281 kts 193°
2026-04-15 07:32 9.95228 124.18224 19644 ft 283 kts 192°
2026-04-15 07:32 9.93319 124.17841 20215 ft 285 kts 192°
2026-04-15 07:32 9.91369 124.17450 20792 ft 287 kts 192°
2026-04-15 07:33 9.89491 124.17073 21335 ft 289 kts 192°
2026-04-15 07:33 9.87482 124.16670 21888 ft 292 kts 192°
2026-04-15 07:33 9.85481 124.16269 22409 ft 294 kts 192°
2026-04-15 07:33 9.83478 124.15865 22831 ft 300 kts 193°
2026-04-15 07:34 9.81506 124.15063 23086 ft 309 kts 207°
2026-04-15 07:34 9.79629 124.14000 23370 ft 316 kts 213°
2026-04-15 07:34 9.77822 124.12690 23646 ft 324 kts 217°
2026-04-15 07:34 9.76024 124.11250 23866 ft 331 kts 219°
2026-04-15 07:35 9.74226 124.09756 23864 ft 340 kts 219°
2026-04-15 07:35 9.72387 124.08214 23865 ft 344 kts 220°
2026-04-15 07:35 9.70545 124.06668 23863 ft 347 kts 220°
2026-04-15 07:35 9.68683 124.05106 23861 ft 349 kts 220°
2026-04-15 07:36 9.66802 124.03526 23860 ft 351 kts 220°
2026-04-15 07:36 9.64905 124.01933 23855 ft 352 kts 220°
2026-04-15 07:36 9.63023 124.00354 23853 ft 353 kts 220°
2026-04-15 07:36 9.61139 123.98774 23850 ft 353 kts 220°
2026-04-15 07:37 9.59254 123.97192 23848 ft 353 kts 220°
2026-04-15 07:37 9.57353 123.95597 23845 ft 354 kts 220°
2026-04-15 07:37 9.55455 123.94006 23841 ft 354 kts 220°
2026-04-15 07:37 9.53580 123.92432 23837 ft 354 kts 220°
2026-04-15 07:38 9.51664 123.90826 23835 ft 353 kts 220°
2026-04-15 07:38 9.49794 123.89259 23833 ft 353 kts 220°
2026-04-15 07:38 9.47897 123.87669 23831 ft 352 kts 220°
2026-04-15 07:38 9.46031 123.86105 23830 ft 352 kts 220°
2026-04-15 07:39 9.44132 123.84513 23830 ft 351 kts 220°
2026-04-15 07:39 9.42272 123.82955 23830 ft 351 kts 220°
2026-04-15 07:39 9.40386 123.81374 23829 ft 350 kts 220°
2026-04-15 07:39 9.38532 123.79776 23817 ft 350 kts 225°
2026-04-15 07:40 9.36990 123.77906 23846 ft 349 kts 231°
2026-04-15 07:40 9.35574 123.75900 23824 ft 349 kts 238°
2026-04-15 07:40 9.34351 123.73762 23833 ft 349 kts 241°
2026-04-15 07:40 9.33201 123.71600 23830 ft 349 kts 242°
2026-04-15 07:41 9.32082 123.69445 23830 ft 348 kts 242°
2026-04-15 07:41 9.30960 123.67275 23829 ft 348 kts 242°
2026-04-15 07:41 9.29835 123.65100 23830 ft 348 kts 242°
2026-04-15 07:41 9.28725 123.62955 23830 ft 348 kts 242°
2026-04-15 07:42 9.27608 123.60796 23830 ft 348 kts 242°
2026-04-15 07:42 9.26480 123.58618 23830 ft 348 kts 242°
2026-04-15 07:42 9.25353 123.56442 23830 ft 348 kts 242°
2026-04-15 07:42 9.24243 123.54299 23829 ft 348 kts 242°
2026-04-15 07:43 9.23124 123.52138 23830 ft 347 kts 242°
2026-04-15 07:43 9.21995 123.49960 23830 ft 347 kts 242°
2026-04-15 07:43 9.20886 123.47820 23829 ft 347 kts 242°
2026-04-15 07:43 9.19760 123.45647 23830 ft 347 kts 242°
2026-04-15 07:44 9.18631 123.43470 23830 ft 347 kts 242°
2026-04-15 07:44 9.17503 123.41294 23829 ft 347 kts 242°
2026-04-15 07:44 9.16392 123.39153 23829 ft 347 kts 242°
2026-04-15 07:44 9.15265 123.36979 23829 ft 347 kts 242°
2026-04-15 07:45 9.14150 123.34830 23830 ft 347 kts 242°
2026-04-15 07:45 9.12978 123.32661 23815 ft 347 kts 236°
2026-04-15 07:45 9.11448 123.30772 23844 ft 346 kts 228°
2026-04-15 07:45 9.09663 123.29171 23819 ft 347 kts 216°
2026-04-15 07:46 9.07642 123.27838 23837 ft 346 kts 211°
2026-04-15 07:46 9.05583 123.26614 23831 ft 346 kts 210°
2026-04-15 07:46 9.03490 123.25411 23831 ft 346 kts 209°
2026-04-15 07:46 9.01401 123.24218 23831 ft 346 kts 209°
2026-04-15 07:47 8.99286 123.23010 23830 ft 346 kts 209°
2026-04-15 07:47 8.97200 123.21818 23830 ft 346 kts 209°
2026-04-15 07:47 8.95102 123.20619 23829 ft 345 kts 209°
2026-04-15 07:47 8.93030 123.19437 23829 ft 345 kts 209°
2026-04-15 07:48 8.90918 123.18231 23829 ft 345 kts 209°
2026-04-15 07:48 8.88848 123.17049 23831 ft 345 kts 209°
2026-04-15 07:48 8.86763 123.15859 23832 ft 345 kts 209°
2026-04-15 07:48 8.84680 123.14670 23832 ft 345 kts 209°
2026-04-15 07:49 8.82572 123.13466 23832 ft 345 kts 209°
2026-04-15 07:49 8.80498 123.12283 23831 ft 345 kts 209°
2026-04-15 07:49 8.78410 123.11090 23831 ft 345 kts 209°
2026-04-15 07:49 8.76319 123.09897 23831 ft 345 kts 208°
2026-04-15 07:50 8.74233 123.08706 23831 ft 345 kts 208°
2026-04-15 07:50 8.72166 123.07527 23831 ft 345 kts 208°
2026-04-15 07:50 8.70075 123.06334 23831 ft 345 kts 208°
2026-04-15 07:50 8.68001 123.05152 23828 ft 346 kts 211°
2026-04-15 07:51 8.65883 123.03960 23816 ft 348 kts 210°
2026-04-15 07:51 8.63773 123.02750 23834 ft 349 kts 210°
2026-04-15 07:51 8.61683 123.01553 23833 ft 350 kts 210°
2026-04-15 07:51 8.59536 123.00327 23834 ft 352 kts 210°
2026-04-15 07:52 8.57424 122.99123 23833 ft 353 kts 210°
2026-04-15 07:52 8.55283 122.97903 23833 ft 354 kts 211°
2026-04-15 07:52 8.53146 122.96686 23833 ft 354 kts 211°
2026-04-15 07:52 8.50993 122.95459 23833 ft 355 kts 211°
2026-04-15 07:53 8.49710 122.94728 23832 ft 355 kts 211°
2026-04-15 07:53 8.47561 122.93504 23832 ft 356 kts 211°
2026-04-15 07:53 8.45394 122.92269 23832 ft 356 kts 211°
2026-04-15 07:53 8.43270 122.91059 23832 ft 356 kts 211°
2026-04-15 07:54 8.41106 122.89827 23832 ft 356 kts 211°
2026-04-15 07:54 8.38942 122.88595 23832 ft 356 kts 211°
2026-04-15 07:54 8.36784 122.87367 23831 ft 356 kts 211°
2026-04-15 07:54 8.34650 122.86151 23831 ft 356 kts 211°
2026-04-15 07:55 8.32484 122.84918 23831 ft 356 kts 211°
2026-04-15 07:55 8.30321 122.83688 23831 ft 356 kts 211°
2026-04-15 07:55 8.26025 122.81244 23831 ft 356 kts 211°
2026-04-15 07:56 8.23854 122.80009 23831 ft 356 kts 211°
2026-04-15 07:56 8.21708 122.78788 23831 ft 356 kts 211°
2026-04-15 07:56 8.19549 122.77560 23831 ft 356 kts 211°
2026-04-15 07:56 8.17409 122.76344 23831 ft 356 kts 211°
2026-04-15 07:57 8.15260 122.75122 23831 ft 356 kts 211°
2026-04-15 07:57 8.13096 122.73892 23831 ft 356 kts 211°
2026-04-15 07:57 8.10962 122.72679 23831 ft 356 kts 211°
2026-04-15 07:57 8.08804 122.71452 23831 ft 356 kts 211°
2026-04-15 07:58 8.06635 122.70219 23831 ft 356 kts 211°
2026-04-15 07:58 8.04489 122.69000 23755 ft 356 kts 211°
2026-04-15 07:58 8.02342 122.67777 23275 ft 352 kts 211°
2026-04-15 07:58 8.00249 122.66592 22820 ft 346 kts 211°
2026-04-15 07:59 7.98155 122.65404 22358 ft 341 kts 211°
2026-04-15 07:59 7.96113 122.64246 21900 ft 336 kts 211°
2026-04-15 07:59 7.94101 122.63103 21445 ft 331 kts 211°
2026-04-15 07:59 7.92109 122.61972 20990 ft 327 kts 211°
2026-04-15 08:00 7.90162 122.60867 20555 ft 323 kts 211°
2026-04-15 08:00 7.88212 122.59760 20121 ft 319 kts 211°
2026-04-15 08:00 7.86280 122.58664 19686 ft 315 kts 211°
2026-04-15 08:00 7.84401 122.57597 19259 ft 312 kts 211°
2026-04-15 08:01 7.82510 122.56525 18825 ft 309 kts 211°
2026-04-15 08:01 7.80657 122.55473 18396 ft 306 kts 211°
2026-04-15 08:01 7.78804 122.54422 17964 ft 303 kts 212°
2026-04-15 08:01 7.76971 122.53381 17533 ft 301 kts 212°
2026-04-15 08:02 7.75160 122.52354 17105 ft 299 kts 212°
2026-04-15 08:02 7.73375 122.51342 16680 ft 296 kts 212°
2026-04-15 08:02 7.71592 122.50331 16305 ft 292 kts 212°
2026-04-15 08:02 7.69839 122.49338 15958 ft 288 kts 212°
2026-04-15 08:03 7.68109 122.48356 15576 ft 286 kts 212°
2026-04-15 08:03 7.66390 122.47382 15199 ft 284 kts 212°
2026-04-15 08:03 7.64681 122.46413 14825 ft 283 kts 212°
2026-04-15 08:03 7.62972 122.45443 14450 ft 282 kts 212°
2026-04-15 08:04 7.61261 122.44473 14072 ft 281 kts 212°
2026-04-15 08:04 7.59554 122.43507 13792 ft 281 kts 212°
2026-04-15 08:04 7.57824 122.42528 13704 ft 291 kts 212°
2026-04-15 08:04 7.56051 122.41518 13601 ft 297 kts 212°
2026-04-15 08:05 7.54238 122.40488 13472 ft 303 kts 212°
2026-04-15 08:05 7.52388 122.39440 13311 ft 308 kts 212°
2026-04-15 08:05 7.50522 122.38384 13141 ft 308 kts 212°
2026-04-15 08:05 7.48671 122.37336 12921 ft 307 kts 212°
2026-04-15 08:06 7.46794 122.36274 12686 ft 307 kts 212°
2026-04-15 08:06 7.44942 122.35226 12454 ft 307 kts 212°
2026-04-15 08:06 7.43092 122.34178 12232 ft 303 kts 211°
2026-04-15 08:06 7.41273 122.33149 11997 ft 297 kts 211°
2026-04-15 08:07 7.39504 122.32148 11751 ft 290 kts 211°
2026-04-15 08:07 7.37759 122.31162 11503 ft 284 kts 212°
2026-04-15 08:07 7.36053 122.30196 11247 ft 279 kts 212°
2026-04-15 08:07 7.34371 122.29243 10988 ft 275 kts 212°
2026-04-15 08:08 7.32720 122.28309 10730 ft 271 kts 211°
2026-04-15 08:08 7.31090 122.27393 10453 ft 268 kts 209°
2026-04-15 08:08 7.29306 122.26822 10168 ft 268 kts 199°
2026-04-15 08:08 7.27496 122.26502 9875 ft 270 kts 182°
2026-04-15 08:09 7.25632 122.26736 9622 ft 270 kts 173°
2026-04-15 08:09 7.23789 122.27065 9349 ft 269 kts 173°
2026-04-15 08:09 7.21964 122.27397 9068 ft 267 kts 173°
2026-04-15 08:09 7.20132 122.27724 8743 ft 264 kts 173°
2026-04-15 08:10 7.18354 122.28041 8429 ft 262 kts 173°
2026-04-15 08:10 7.16571 122.28358 8120 ft 260 kts 173°
2026-04-15 08:10 7.14779 122.28677 7811 ft 257 kts 173°
2026-04-15 08:10 7.13034 122.28987 7509 ft 255 kts 173°
2026-04-15 08:11 7.11298 122.29295 7202 ft 254 kts 173°
2026-04-15 08:11 7.09576 122.29602 6908 ft 252 kts 173°
2026-04-15 08:11 7.07859 122.29906 6638 ft 252 kts 173°
2026-04-15 08:11 7.06130 122.30214 6370 ft 252 kts 173°
2026-04-15 08:12 7.04422 122.30517 6107 ft 250 kts 173°
2026-04-15 08:12 7.02716 122.30821 5823 ft 249 kts 173°
2026-04-15 08:12 7.01015 122.31123 5550 ft 247 kts 173°
2026-04-15 08:12 6.99323 122.31187 5258 ft 242 kts 187°
2026-04-15 08:13 6.97655 122.31052 4989 ft 239 kts 193°
2026-04-15 08:13 6.96108 122.30549 4721 ft 234 kts 204°
2026-04-15 08:13 6.94608 122.29908 4440 ft 231 kts 206°
2026-04-15 08:13 6.93163 122.29252 4154 ft 227 kts 211°
2026-04-15 08:14 6.92129 122.28116 3857 ft 219 kts 243°
2026-04-15 08:14 6.91454 122.26778 3609 ft 215 kts 245°
2026-04-15 08:14 6.91060 122.25339 3314 ft 211 kts 264°
2026-04-15 08:14 6.91056 122.23882 3038 ft 206 kts 271°
2026-04-15 08:15 6.91127 122.22465 2810 ft 198 kts 274°
2026-04-15 08:15 6.91217 122.21114 2562 ft 190 kts 274°
2026-04-15 08:15 6.91307 122.19821 2462 ft 181 kts 273°
2026-04-15 08:15 6.91392 122.18578 2288 ft 173 kts 275°
2026-04-15 08:16 6.91469 122.17382 2040 ft 168 kts 274°
2026-04-15 08:16 6.91553 122.16244 1803 ft 161 kts 272°
2026-04-15 08:16 6.91622 122.15132 1587 ft 157 kts 273°
2026-04-15 08:16 6.91696 122.14056 1377 ft 151 kts 274°
2026-04-15 08:17 6.91767 122.13036 1180 ft 145 kts 272°
2026-04-15 08:17 6.91830 122.12051 991 ft 134 kts 273°
2026-04-15 08:17 6.91893 122.11147 818 ft 125 kts 273°
2026-04-15 08:17 6.91950 122.10295 656 ft 121 kts 271°
2026-04-15 08:18 6.92006 122.09457 503 ft 119 kts 273°
2026-04-15 08:18 6.92064 122.08621 358 ft 121 kts 272°
2026-04-15 08:18 6.92115 122.07773 214 ft 123 kts 274°
2026-04-15 08:18 6.92181 122.06907 40 ft 122 kts 273°
2026-04-15 08:19 6.92230 122.06152 36 ft 78 kts 274°
2026-04-15 08:19 6.92237 122.06027 36 ft 3 kts 260°
2026-04-15 08:19 6.92219 122.06009 36 ft 4 kts 201°
2026-04-15 08:19 6.92190 122.06010 37 ft 4 kts 146°
2026-04-15 08:20 6.92165 122.06031 37 ft 5 kts 140°
2026-04-15 08:20 6.92160 122.06036 37 ft 0 kts 139°
2026-04-15 08:21 6.92153 122.06042 37 ft 2 kts 139°
2026-04-15 08:21 6.92141 122.06067 38 ft 5 kts 100°
2026-04-15 08:21 6.92138 122.06113 38 ft 7 kts 93°
2026-04-15 08:21 6.92122 122.06149 38 ft 3 kts 148°
2026-04-15 08:22 6.92096 122.06162 38 ft 5 kts 155°
2026-04-15 08:22 6.92057 122.06180 38 ft 6 kts 155°
2026-04-15 08:22 6.92043 122.06186 38 ft 0 kts 155°